N837SC EGCC-LKKV

Flight info

Callsign N837SC
Flight time N/A
Altitude 31000
Route LISTO2S LISTO UL612 HON P155 SIVDA P137 REDFA L620 BIRKA DCT
Aircraft SF50/L-BDGRSWY/LB2U2

Departure

Time 2026-05-05 10:32
Airport Manchester Airport (EGCC)

Arrival

Time N/A
Airport Karlovy Vary Airport (LKKV)
Time Latitude Longitude Altitude Speed Heading
2026-05-05 10:09 53.35613 -2.28073 238 ft 0 kts 229°
2026-05-05 10:26 53.35607 -2.28085 238 ft 6 kts 230°
2026-05-05 10:26 53.35579 -2.28125 238 ft 0 kts 193°
2026-05-05 10:27 53.35575 -2.28127 238 ft 5 kts 191°
2026-05-05 10:27 53.35480 -2.28147 236 ft 24 kts 188°
2026-05-05 10:27 53.35297 -2.28210 231 ft 22 kts 209°
2026-05-05 10:27 53.35218 -2.28330 227 ft 6 kts 230°
2026-05-05 10:28 53.35176 -2.28419 224 ft 14 kts 233°
2026-05-05 10:28 53.35100 -2.28579 220 ft 21 kts 233°
2026-05-05 10:28 53.35015 -2.28742 215 ft 12 kts 222°
2026-05-05 10:28 53.34958 -2.28840 212 ft 11 kts 225°
2026-05-05 10:29 53.34908 -2.28926 214 ft 10 kts 227°
2026-05-05 10:29 53.34867 -2.29002 207 ft 8 kts 228°
2026-05-05 10:29 53.34828 -2.29049 208 ft 7 kts 200°
2026-05-05 10:29 53.34790 -2.29070 208 ft 5 kts 183°
2026-05-05 10:30 53.34772 -2.29069 203 ft 0 kts 174°
2026-05-05 10:30 53.34768 -2.29068 203 ft 4 kts 174°
2026-05-05 10:31 53.34687 -2.29018 209 ft 16 kts 136°
2026-05-05 10:31 53.34702 -2.28897 204 ft 1 kts 51°
2026-05-05 10:31 53.34704 -2.28892 204 ft 3 kts 51°
2026-05-05 10:31 53.34784 -2.28728 211 ft 42 kts 50°
2026-05-05 10:32 53.35070 -2.28136 224 ft 88 kts 51°
2026-05-05 10:32 53.35508 -2.27229 390 ft 104 kts 54°
2026-05-05 10:32 53.35959 -2.26225 690 ft 112 kts 49°
2026-05-05 10:32 53.36484 -2.25080 1044 ft 128 kts 50°
2026-05-05 10:33 53.36970 -2.23852 1644 ft 131 kts 55°
2026-05-05 10:33 53.37472 -2.22301 1686 ft 170 kts 70°
2026-05-05 10:33 53.37332 -2.20275 1693 ft 184 kts 115°
2026-05-05 10:33 53.36494 -2.18752 1693 ft 178 kts 146°
2026-05-05 10:34 53.35453 -2.17640 1795 ft 181 kts 147°
2026-05-05 10:34 53.34311 -2.16900 2610 ft 173 kts 173°
2026-05-05 10:34 53.33098 -2.16955 3183 ft 178 kts 188°
2026-05-05 10:34 53.31854 -2.17159 3790 ft 181 kts 185°
2026-05-05 10:35 53.30602 -2.17338 4456 ft 180 kts 185°
2026-05-05 10:35 53.29346 -2.17531 4990 ft 189 kts 185°
2026-05-05 10:35 53.27988 -2.17742 5036 ft 193 kts 186°
2026-05-05 10:35 53.26683 -2.17953 5038 ft 185 kts 186°
2026-05-05 10:36 53.25415 -2.18155 5037 ft 181 kts 185°
2026-05-05 10:36 53.24160 -2.18351 5039 ft 185 kts 186°
2026-05-05 10:36 53.22868 -2.18559 5040 ft 188 kts 186°
2026-05-05 10:36 53.21555 -2.18767 5044 ft 191 kts 186°
2026-05-05 10:37 53.20235 -2.18975 5048 ft 188 kts 186°
2026-05-05 10:37 53.18939 -2.19179 5055 ft 186 kts 186°
2026-05-05 10:37 53.17628 -2.19390 5660 ft 183 kts 186°
2026-05-05 10:37 53.16369 -2.19590 6304 ft 184 kts 186°
2026-05-05 10:38 53.15088 -2.19785 6862 ft 184 kts 186°
2026-05-05 10:38 53.13812 -2.19551 7368 ft 188 kts 159°
2026-05-05 10:38 53.12614 -2.18675 7850 ft 190 kts 169°
2026-05-05 10:38 53.11305 -2.18385 8404 ft 188 kts 175°
2026-05-05 10:39 53.09999 -2.18137 8960 ft 190 kts 175°
2026-05-05 10:39 53.08699 -2.17873 9511 ft 192 kts 175°
2026-05-05 10:39 53.07367 -2.17574 10043 ft 194 kts 170°
2026-05-05 10:39 53.06197 -2.16420 10512 ft 200 kts 140°
2026-05-05 10:40 53.05157 -2.14867 11009 ft 201 kts 140°
2026-05-05 10:40 53.04105 -2.13317 11474 ft 204 kts 140°
2026-05-05 10:40 53.03042 -2.11733 11954 ft 206 kts 140°
2026-05-05 10:40 53.02334 -2.10676 12280 ft 206 kts 140°
2026-05-05 10:41 53.01262 -2.09080 12761 ft 208 kts 140°
2026-05-05 10:41 53.00181 -2.07463 13231 ft 210 kts 140°
2026-05-05 10:41 52.99096 -2.05829 13689 ft 212 kts 140°
2026-05-05 10:41 52.98003 -2.04163 14110 ft 213 kts 140°
2026-05-05 10:42 52.95831 -2.00820 14970 ft 213 kts 140°
2026-05-05 10:42 52.94741 -1.99138 15380 ft 214 kts 140°
2026-05-05 10:42 52.93650 -1.97447 15786 ft 215 kts 140°
2026-05-05 10:43 52.92558 -1.95740 16192 ft 217 kts 140°
2026-05-05 10:43 52.91460 -1.94016 16597 ft 218 kts 140°
2026-05-05 10:43 52.90361 -1.92276 17004 ft 219 kts 140°
2026-05-05 10:43 52.89274 -1.90546 17392 ft 220 kts 140°
2026-05-05 10:44 52.88167 -1.88775 17789 ft 221 kts 140°
2026-05-05 10:44 52.87063 -1.86994 18169 ft 222 kts 140°
2026-05-05 10:44 52.85954 -1.85196 18515 ft 223 kts 140°
2026-05-05 10:44 52.84845 -1.83390 18851 ft 224 kts 140°
2026-05-05 10:45 52.83731 -1.81574 19196 ft 225 kts 140°
2026-05-05 10:45 52.82611 -1.79751 19526 ft 226 kts 140°
2026-05-05 10:45 52.81492 -1.77925 19872 ft 227 kts 140°
2026-05-05 10:45 52.80368 -1.76090 20185 ft 227 kts 140°
2026-05-05 10:46 52.79240 -1.74246 20513 ft 228 kts 140°
2026-05-05 10:46 52.78192 -1.72294 20815 ft 234 kts 127°
2026-05-05 10:46 52.77499 -1.69831 21132 ft 238 kts 116°
2026-05-05 10:46 52.76879 -1.67285 21436 ft 238 kts 118°
2026-05-05 10:47 52.76148 -1.64838 21745 ft 238 kts 121°
2026-05-05 10:47 52.75428 -1.62366 22041 ft 240 kts 119°
2026-05-05 10:47 52.74749 -1.59864 22415 ft 236 kts 118°
2026-05-05 10:47 52.74078 -1.57428 22697 ft 237 kts 118°
2026-05-05 10:48 52.73380 -1.54923 22980 ft 238 kts 118°
2026-05-05 10:48 52.72697 -1.52472 23254 ft 239 kts 119°
2026-05-05 10:48 52.72004 -1.49980 23515 ft 240 kts 118°
2026-05-05 10:48 52.71306 -1.47472 23745 ft 241 kts 118°
2026-05-05 10:49 52.70596 -1.44929 23973 ft 241 kts 118°
2026-05-05 10:49 52.69903 -1.42443 24187 ft 242 kts 118°
2026-05-05 10:49 52.69199 -1.39916 24403 ft 243 kts 118°
2026-05-05 10:49 52.68489 -1.37382 24615 ft 243 kts 118°
2026-05-05 10:50 52.67781 -1.34845 24822 ft 244 kts 118°
2026-05-05 10:50 52.67065 -1.32295 25022 ft 245 kts 118°
2026-05-05 10:50 52.66359 -1.29774 25233 ft 245 kts 118°
2026-05-05 10:50 52.65642 -1.27221 25422 ft 246 kts 118°
2026-05-05 10:51 52.64922 -1.24664 25612 ft 247 kts 118°
2026-05-05 10:51 52.64198 -1.22095 25793 ft 247 kts 118°
2026-05-05 10:51 52.63473 -1.19525 25968 ft 248 kts 118°
2026-05-05 10:51 52.62745 -1.16943 26137 ft 249 kts 118°
2026-05-05 10:52 52.62015 -1.14362 26300 ft 249 kts 118°
2026-05-05 10:52 52.61324 -1.11735 26461 ft 251 kts 115°
2026-05-05 10:52 52.60677 -1.09067 26623 ft 251 kts 117°
2026-05-05 10:52 52.59942 -1.06469 26780 ft 250 kts 120°
2026-05-05 10:53 52.59227 -1.04050 26930 ft 251 kts 119°